Skip Page Navigation
NASA JPL Caltech
NASA Logo - Jet Propulsion Laboratory + View the NASA Portal
+ Center for Near-Earth Object Studies
JPL Home Earth Solar System Stars & Galaxies Technology
JPL Solar System Dynamics
BODIES ORBITS EPHEMERIDES TOOLS PHYSICAL DATA DISCOVERY FAQ SITE MAP
JPL Small-Body Database Browser
Search: [ help ]  
86104 (1999 RF110)
Classification: Main-belt Asteroid          SPK-ID: 2086104
Ephemeris | Orbit Diagram | Orbital Elements | Mission Design | Physical Parameters | Discovery Circumstances | Close-Approach Data ]

[ hide orbit diagram ]

For accurate long-term ephemerides, please instead use our Horizons system.This orbit viewer was implemented using two-body methods, and hence should not be used for determining accurate long-term trajectories (over several years or decades) or planetary encounter circumstances.


[ revert to old Java-based viewer ]

Orbital Elements at Epoch 2459000.5 (2020-May-31.0) TDB
Reference: JPL 24 (heliocentric ecliptic J2000)
 Element Value Uncertainty (1-sigma)   Units 
e .06652476798275421 3.6842e-08  
a 3.030082838702839 1.9542e-08 au
q 2.828507280889608 1.1911e-07 au
i 8.361154353727549 4.2939e-06 deg
node 297.6640729632954 3.3824e-05 deg
peri 132.2060069868337 5.7634e-05 deg
M 281.1823493325419 4.4813e-05 deg
tp 2459422.294744636272
(2021-Jul-26.79474464)
0.00023998 TDB
period 1926.549532790776
5.27
1.8638e-05
5.103e-08
d
yr
n .1868625715937386 1.8077e-09 deg/d
Q 3.231658396516071 2.0842e-08 au
  Orbit Determination Parameters
   # obs. used (total)      1106  
   data-arc span      7766 days (21.26 yr)  
   first obs. used      1999-07-23  
   last obs. used      2020-10-26  
   planetary ephem.      DE431  
   SB-pert. ephem.      SB431-N16  
   condition code      0  
   norm. resid. RMS      .51408  
   source      ORB  
   producer      Otto Matic  
   solution date      2020-Nov-12 20:58:36  

Additional Information
 Earth MOID = 1.85163 au 
 Jupiter MOID = 1.96691 au 
 T_jup = 3.224 
[ show covariance matrix ]

Ephemeris | Orbit Diagram | Orbital Elements | Mission Design | Physical Parameters | Discovery Circumstances | Close-Approach Data ]

Physical Parameter Table
Parameter Symbol Value Units Sigma Reference Notes
absolute magnitude H 14.1   n/a MPO359344  

86104 (1999 RF110)          Discovered 1999-Sep-08 by LINEAR at Socorro
Reference: 20040830/Numbers.arcLast Updated: 2004-09-06

[ hide close-approach data ]
Close-Approach Data   ...sorted by Date/Time (TDB)
Date/Time (TDB) Time Uncertainty
(days_HH:MM)
Body Nominal Distance (au) Minimum Distance (au) Maximum Distance (au) V-relative (km/s) V-infinity (km/s) JD (TDB) Time Uncertainty (minutes) Semi-major axis (km) Semi-minor axis (km) range-LOV angle (deg) N-sigma BP Orbit Ref. Reference Modified
1914-Apr-29 20:22 00:03 Jupiter 1.98167706733434 1.98167657397558 1.9816775606931 4.1049778935688 3.99949862765251 2420252.348666441 2.89458932639644 69.4148041859398 21.0630100663896 84.0230134920645 3295642.52421097 T 24 CATAB v2.0f-lin.ifort 2020-Nov-12 20:58:40 2020-Nov-12 20:58
1961-Nov-09 17:10 00:02 Jupiter 1.98062733301106 1.98062683314725 1.98062783287498 4.09081825714289 3.98490736471282 2437613.215265389 1.56459823498271 72.0297677673719 20.8913050290404 82.9268627599225 3270363.29792301 T 24 CATAB v2.0f-lin.ifort 2020-Nov-12 20:58:40 2020-Nov-12 20:58
2009-May-22 12:36 < 00:01 Jupiter 1.98265073101351 1.98265023125506 1.98265123077196 4.07856652948724 3.97243886212666 2454974.025095613 0.316596530924542 73.6767610327663 20.8269484267311 83.0886344759056 3235941.17693558 T 24 CATAB v2.0f-lin.ifort 2020-Nov-12 20:58:40 2020-Nov-12 20:58
2056-Dec-03 02:48 00:01 Jupiter 1.99082991515738 1.99082940206584 1.99083042824904 4.07119675014345 3.96531448182298 2472335.616446944 1.16624945361582 77.6375593632635 21.1190451927387 82.7352824429485 3195800.58782832 T 24 CATAB v2.0f-lin.ifort 2020-Nov-12 20:58:40 2020-Nov-12 20:58
2104-Jun-17 09:46 00:03 Jupiter 1.99490994653068 1.99490937767557 1.99491051538624 4.04943095186331 3.94318492120927 2489697.906852192 2.50872990814038 101.304190133118 21.5541239141593 81.3917772403728 3143062.75385792 T 24 CATAB v2.0f-lin.ifort 2020-Nov-12 20:58:40 2020-Nov-12 20:58
2151-Dec-31 16:49 00:04 Jupiter 1.99406456209379 1.99406386870626 1.99406525548347 4.0120493536775 3.90474023380906 2507061.201021667 3.87761616861379 157.916008535499 21.7977268048617 80.8864123966163 3086876.28998347 T 24 CATAB v2.0f-lin.ifort 2020-Nov-12 20:58:40 2020-Nov-12 20:58
2199-Jul-16 03:11 00:05 Jupiter 1.99637694199856 1.99637607336435 1.99637781064013 3.97648359545492 3.86831514726969 2524424.632435014 5.26186738003061 241.365655236885 21.9086257132065 81.2619805672697 3041637.70580918 T 24 CATAB v2.0f-lin.ifort 2020-Nov-12 20:58:40 2020-Nov-12 20:58
Ephemeris | Orbit Diagram | Orbital Elements | Mission Design | Physical Parameters | Discovery Circumstances | Close-Approach Data ]
ABOUT SSD CREDITS/AWARDS PRIVACY/COPYRIGHT GLOSSARY LINKS
FirstGov 2020-Nov-28 11:56 UT
(server date/time)  
NASA Home Page
Site Manager:   Ryan S. Park
Webmaster  Alan B. Chamberlin